This is the latest recevied weather packets stored in our database for station/object K6MBY. If no packets are shown the sender has not sent any weather packets the latest 10 day(s).
| Time | Temp. | Humidity | Pressure | Rain* | Wind** | Luminosity | Snow |
|---|---|---|---|---|---|---|---|
| 1777432703 | 9.44° C | 88% | 1027.2 hPa | 0 mm | - | 6 W/m² | - |
| 1777432399 | 9.44° C | 87% | 1027.2 hPa | 0 mm | - | 8 W/m² | - |
| 1777432095 | 9.44° C | 86% | 1027.2 hPa | 0 mm | - | 12 W/m² | - |
| 1777431790 | 10° C | 86% | 1026.9 hPa | 0 mm | - | 15 W/m² | - |
| 1777431486 | 10° C | 85% | 1027.1 hPa | 0 mm | - | 19 W/m² | - |
| 1777431182 | 10° C | 84% | 1026.8 hPa | 0 mm | - | 22 W/m² | - |
| 1777430878 | 10.56° C | 83% | 1026.9 hPa | 0 mm | - | 26 W/m² | - |
| 1777430575 | 10.56° C | 82% | 1026.7 hPa | 0 mm | - | 31 W/m² | - |
| 1777430270 | 10.56° C | 82% | 1026.8 hPa | 0 mm | - | 38 W/m² | - |
| 1777429970 | 11.11° C | 81% | 1026.7 hPa | 0 mm | - | 48 W/m² | - |
| 1777429668 | 11.11° C | 82% | 1026.9 hPa | 0 mm | - | 53 W/m² | - |
| 1777429363 | 10.56° C | 81% | 1026.8 hPa | 0 mm | - | 55 W/m² | - |
| 1777429059 | 11.11° C | 81% | 1026.7 hPa | 0 mm | - | 67 W/m² | - |
| 1777428755 | 11.11° C | 81% | 1026.8 hPa | 0 mm | - | 87 W/m² | - |
| 1777428451 | 11.11° C | 82% | 1027 hPa | 0 mm | - | 84 W/m² | - |
| 1777428147 | 11.11° C | 81% | 1027 hPa | 0 mm | - | 86 W/m² | - |
| 1777427843 | 11.11° C | 81% | 1026.8 hPa | 0 mm | - | 82 W/m² | - |
| 1777427540 | 11.11° C | 81% | 1026.9 hPa | 0 mm | - | 90 W/m² | - |
| 1777427236 | 11.11° C | 81% | 1026.7 hPa | 0 mm | - | 99 W/m² | - |
| 1777426934 | 11.11° C | 81% | 1026.8 hPa | 0 mm | - | 107 W/m² | - |
| 1777426631 | 11.11° C | 81% | 1027 hPa | 0 mm | - | 117 W/m² | - |
| 1777426327 | 11.11° C | 81% | 1027 hPa | 0 mm | - | 129 W/m² | - |
| 1777426022 | 11.11° C | 81% | 1027 hPa | 0 mm | - | 139 W/m² | - |
| 1777425717 | 11.11° C | 80% | 1027 hPa | 0 mm | - | 148 W/m² | - |
| 1777425412 | 11.11° C | 80% | 1026.9 hPa | 0 mm | - | 151 W/m² | - |
* Rain latest hour (hover to see other rain measurements)
** Current wind speed in m/s (hover to see current wind gust speed)